This is the latest recevied weather packets stored in our database for station/object DG4DAZ-6. If no packets are shown the sender has not sent any weather packets the latest 10 day(s).
| Time | Temp. | Humidity | Pressure | Rain* | Wind** | Luminosity | Snow |
|---|---|---|---|---|---|---|---|
| 1777222166 | 12.78° C | 45% | 1022.9 hPa | 0 mm | - | 33 W/m² | - |
| 1777221567 | 12.78° C | 46% | 1023 hPa | 0 mm | - | 37 W/m² | - |
| 1777220965 | 13.33° C | 45% | 1022.9 hPa | 0 mm | - | 36 W/m² | - |
| 1777220367 | 13.33° C | 45% | 1022.9 hPa | 0 mm | - | 35 W/m² | - |
| 1777219766 | 13.33° C | 45% | 1022.9 hPa | 0 mm | - | 35 W/m² | - |
| 1777219166 | 13.89° C | 44% | 1023 hPa | 0 mm | - | 35 W/m² | - |
| 1777218566 | 14.44° C | 42% | 1023 hPa | 0 mm | - | 36 W/m² | - |
| 1777217965 | 14.44° C | 41% | 1023.1 hPa | 0 mm | - | 39 W/m² | - |
| 1777217366 | 15° C | 40% | 1023.1 hPa | 0 mm | - | 40 W/m² | - |
| 1777216765 | 15.56° C | 40% | 1023.1 hPa | 0 mm | - | 42 W/m² | - |
| 1777216167 | 15° C | 40% | 1023.1 hPa | 0 mm | - | 45 W/m² | - |
| 1777215566 | 15.56° C | 41% | 1023.1 hPa | 0 mm | - | 50 W/m² | - |
| 1777214966 | 15.56° C | 41% | 1023.1 hPa | 0 mm | - | 55 W/m² | - |
| 1777214367 | 15.56° C | 41% | 1023.2 hPa | 0 mm | - | 67 W/m² | - |
| 1777213767 | 15.56° C | 42% | 1023.3 hPa | 0 mm | - | 528 W/m² | - |
| 1777213167 | 16.11° C | 40% | 1023.3 hPa | 0 mm | - | 641 W/m² | - |
| 1777212566 | 16.11° C | 42% | 1023.4 hPa | 0 mm | - | 720 W/m² | - |
| 1777211965 | 15.56° C | 41% | 1023.4 hPa | 0 mm | - | 781 W/m² | - |
| 1777211366 | 15.56° C | 42% | 1023.4 hPa | 0 mm | - | 617 W/m² | - |
| 1777210765 | 15.56° C | 41% | 1023.4 hPa | 0 mm | - | 571 W/m² | - |
| 1777210167 | 15.56° C | 43% | 1023.5 hPa | 0 mm | - | 660 W/m² | - |
| 1777209566 | 15.56° C | 43% | 1023.6 hPa | 0 mm | - | 747 W/m² | - |
| 1777208965 | 15.56° C | 42% | 1023.6 hPa | 0 mm | - | 751 W/m² | - |
| 1777208367 | 15.56° C | 43% | 1023.6 hPa | 0 mm | - | 760 W/m² | - |
| 1777207766 | 15.56° C | 44% | 1023.7 hPa | 0 mm | - | 129 W/m² | - |
* Rain latest hour (hover to see other rain measurements)
** Current wind speed in m/s (hover to see current wind gust speed)